DW6828 Weather Reports


time (UTC)temp
F
wind
direction
speed
knots
gust
knots
rain 1hr
in
rain 24hr
in
rain mn
in
humidity
%
barometer
mb
20260504041540 51 282 1.7 7.8 0.00 0.00 0.00 58 1004.3
20260504040042 52 278 4.3 11.3 0.00 0.00 0.00 56 1004.3
20260504034547 52 281 2.6 9.6 0.00 0.00 0.00 54 1004.3
20260504033046 53 268 4.3 12.2 0.00 0.00 0.00 51 1004.2
20260504031602 53 262 2.6 10.4 0.00 0.00 0.00 47 1004.2
20260504030043 53 273 3.5 10.4 0.00 0.00 0.00 46 1004.1
20260504024542 53 237 2.6 7.8 0.00 0.00 0.00 44 1004.3
20260504023039 53 229 0.0 3.5 0.00 0.00 0.00 44 1004.3
20260504021538 53 0 0.9 4.3 0.00 0.00 0.00 44 1004.5
20260504020043 53 0 0.0 4.3 0.00 0.00 0.00 44 1004.4
20260504014536 53 0 2.6 8.7 0.00 0.00 0.00 43 1004.5
20260504013042 52 220 5.2 13.9 0.00 0.00 0.00 45 1004.6
20260504011547 52 0 0.0 0.0 0.00 0.00 0.00 51 1004.3
20260504010045 52 0 0.0 2.6 0.00 0.00 0.00 50 1004.3
20260504004538 53 0 0.0 4.3 0.00 0.00 0.00 48 1004.1
20260504003042 54 0 0.0 0.0 0.00 0.00 0.00 47 1004.0
20260504001601 55 0 0.0 4.3 0.00 0.00 0.00 44 1003.9
20260504000041 56 0 0.0 4.3 0.00 0.00 0.00 40 1004.1
20260503234540 56 0 0.0 3.5 0.00 0.00 0.00 28 1003.8
20260503233039 57 0 0.0 3.5 0.00 0.00 0.00 28 1003.8
20260503231546 57 0 0.0 8.7 0.00 0.00 0.00 28 1003.8
20260503230044 58 0 1.7 8.7 0.00 0.00 0.00 27 1003.9
20260503224535 58 0 1.7 7.0 0.00 0.00 0.00 26 1003.9
20260503223043 58 260 0.9 7.0 0.00 0.00 0.00 26 1003.9
20260503221540 59 338 1.7 7.8 0.00 0.00 0.00 26 1004.0
20260503220040 59 319 0.9 7.8 0.00 0.00 0.00 26 1003.9
20260503214543 59 245 0.9 7.8 0.00 0.00 0.00 26 1004.0
20260503213052 60 0 0.9 8.7 0.00 0.00 0.00 26 1004.2
20260503211602 60 294 0.0 8.7 0.00 0.00 0.00 25 1004.4
20260503210039 61 329 0.0 9.6 0.00 0.00 0.00 26 1004.3
20260503204557 62 266 2.6 9.6 0.00 0.00 0.00 25 1004.6
20260503203040 61 304 0.9 5.2 0.00 0.00 0.00 27 1004.7
20260503201540 60 278 3.5 13.9 0.00 0.00 0.00 28 1004.9
20260503200043 59 0 0.0 7.8 0.00 0.00 0.00 29 1005.0
20260503194541 59 0 1.7 6.1 0.00 0.00 0.00 27 1005.3
20260503193040 59 289 3.5 10.4 0.00 0.00 0.00 29 1005.5
20260503191555 58 0 1.7 7.0 0.00 0.00 0.00 30 1005.8
20260503190040 58 261 0.9 7.8 0.00 0.00 0.00 30 1006.0
20260503184537 58 0 0.9 7.0 0.00 0.00 0.00 32 1006.1
20260503183046 58 210 4.3 9.6 0.00 0.00 0.00 30 1006.5
20260503181542 57 0 0.0 5.2 0.00 0.00 0.00 30 1006.6
20260503180039 57 0 1.7 7.8 0.00 0.00 0.00 32 1006.9
20260503174551 56 0 3.5 8.7 0.00 0.00 0.00 33 1007.0
20260503173038 56 0 1.7 11.3 0.00 0.00 0.00 32 1007.2
20260503171536 55 0 1.7 7.8 0.00 0.00 0.00 33 1007.4
20260503081554 39 0 0.0 0.0 0.00 0.00 0.00 63 1009.9
20260503071558 39 0 0.0 0.0 0.00 0.00 0.00 63 1009.9
20260503054554 40 0 0.0 0.0 0.00 0.00 0.00 63 1010.1
20260503053040 40 0 0.0 0.0 0.00 0.00 0.00 63 1010.2
20260503051547 40 0 0.0 0.0 0.00 0.00 0.00 63 1010.3
20260503050037 41 0 0.0 0.0 0.00 0.00 0.00 61 1010.4
20260503044536 41 0 0.0 0.0 0.00 0.00 0.00 60 1010.6
20260503043045 42 0 0.0 0.0 0.00 0.00 0.00 58 1010.7